STARLINK-2419, 47830

Orbit data source: Space-Track

STARLINK-2419, 47830 is a payload satellite owned by SpaceX/Seattle (US) in LEO that was launched on Thu, 11 Mar 2021 UTC via an FALCON 9 launch vehicle from the Air Force Eastern Test Range (AFETR). Payload-class satellites include a variety of spacecraft equipped with specific instruments for various scientific and technological missions. These include communications satellites like Starlink; space stations such as the ISS; scientific satellites like the Hubble; Earth observation satellites from companies like Planet Labs, Umbra, and HawkEye 360; GPS; miniature CubeSats for education and research; and military/defense satellites.

Loading next visibility...
Identifier
47830, 2021-018AV
Orbit
LEO
Country
Flag of USUS
Related business
Manufacturer
SpaceX/Seattle
Mission
Operational Commercial Communications
Bus & Motor
STARLINK, Unknown motor
Mass
260 kg wet, ~248 kg dry
Launch date (UTC)
2021-03-11 (5 years ago)
Launch vehicle
FALCON 9
Launch site
Air Force Eastern Test Range (AFETR)
Object type
Payload
Rocket body
Debris
Shape & HBR
Box + 1 Pan, 10.1 m
Radar Cross Section
13.562 m², Large (>1 m²)

Expand to show TLE details & history
Last TLE update: 13 hours ago

TLE from 13 hours ago
0 STARLINK-2419
1 47830U 21018AV  26119.97804970  .00000065  00000-0  13852-4 0  9991
2 47830  53.1619  17.1910 0001385  69.5427 290.5723 15.31695450284391
Epoch: 2026-04-29T23:28Z
TLE epoch observation values (Epoch: 2026-04-29T23:28:23.494Z)
Latitude
-0°
Longitude
167.16184°
Altitude
471.321 km
Speed
7.632 km/s
True Right ascension
01h 08m 45s
True Declination
0° 00' 00"
Sunlit
Object was in daylight at epoch
Visualization orbit readout
Latitude
Unknown
Longitude
Unknown
Altitude
Unknown
Speed
Unknown
Apparent Right ascension
Unknown
Apparent Declination
Unknown
Sunlit
N/A
Visualization observer readout
Local Sidereal Time
20:14:22
Azimuth
Unknown
Elevation
Unknown
Doppler factor
Unknown
Orbital elements
Apogee altitude
471.958 km
Perigee altitude
470.061 km
Semi-major axis
6,849.147 km
Eccentricity
0.00014
Inclination
53.1619°
RAAN
17.191°
Arg. of periapsis
69.5427°
True anomaly
290.55744°
Mean anomaly
290.5723°
Eccentric anomaly
290.56487°
Mean motion
3.82903 °/min
Orbital period
94.02 mins
BSTAR
0.000013852
Loading maneuver chart data...
Computing Atmospheric mass density...
Loading historical data...
Loading historical data...
Loading historical data...
Loading historical data...
Loading historical data...
Loading historical data...
Loading historical data...

Documentation

Showing up to 5 results
|